Tillbaka till svenska Fidonet
English   Information   Debug  
FILM   0/18
FNEWS_PUBLISH   4800
FN_SYSOP   42074
FN_SYSOP_OLD1   71952
FTP_FIDO   0/2
FTSC_PUBLIC   0/13902
FUNNY   0/4886
GENEALOGY.EUR   0/71
GET_INFO   105
GOLDED   0/408
HAM   5036/16493
HOLYSMOKE   5822/6791
HOT_SITES   0/1
HTMLEDIT   0/71
HUB203   466
HUB_100   264
HUB_400   39
HUMOR   0/29
IC   0/2851
INTERNET   0/424
INTERUSER   0/3
IP_CONNECT   719
JAMNNTPD   0/233
JAMTLAND   0/47
KATTY_KORNER   0/41
LAN   0/16
LINUX-USER   0/19
LINUXHELP   0/1155
LINUX   0/22274
LINUX_BBS   0/957
mail   18.68
mail_fore_ok   249
MENSA   0/341
MODERATOR   0/102
MONTE   0/992
MOSCOW_OKLAHOMA   0/1245
MUFFIN   0/783
MUSIC   0/321
N203_STAT   938
N203_SYSCHAT   313
NET203   321
NET204   69
NET_DEV   0/10
NORD.ADMIN   0/101
NORD.CHAT   0/2572
NORD.FIDONET   189
NORD.HARDWARE   0/28
NORD.KULTUR   0/114
NORD.PROG   0/32
NORD.SOFTWARE   0/88
NORD.TEKNIK   0/58
NORD   0/453
OCCULT_CHAT   0/93
OS2BBS   0/787
OS2DOSBBS   0/580
OS2HW   0/42
OS2INET   0/37
OS2LAN   0/134
OS2PROG   0/36
OS2REXX   0/113
OS2USER-L   207
OS2   0/4820
OSDEBATE   8582/18996
PASCAL   0/490
PERL   0/457
PHP   0/45
POINTS   0/405
POLITICS   0/29554
POL_INC   13459/14731
PSION   103
R20_ADMIN   1132
R20_AMATORRADIO   0/2
R20_BEST_OF_FIDONET   15
R20_CHAT   0/895
R20_DEPP   0/3
R20_DEV   400
R20_ECHO2   1712
R20_ECHOPRES   0/35
R20_ESTAT   0/719
R20_FIDONETPROG...
...RAM.MYPOINT
  0/2
R20_FIDONETPROGRAM   0/22
R20_FIDONET   0/248
R20_FILEFIND   0/24
R20_FILEFOUND   0/22
R20_HIFI   0/3
R20_INFO2   3604
R20_INTERNET   0/12940
R20_INTRESSE   0/60
R20_INTR_KOM   0/99
R20_KANDIDAT.CHAT   42
R20_KANDIDAT   28
R20_KOM_DEV   112
R20_KONTROLL   12216/13360
R20_KORSET   0/18
R20_LOKALTRAFIK   0/24
R20_MODERATOR   0/1852
R20_NC   76
R20_NET200   245
R20_NETWORK.OTH...
...ERNETS
  0/13
R20_OPERATIVSYS...
...TEM.LINUX
  0/44
R20_PROGRAMVAROR   0/1
R20_REC2NEC   534
R20_SFOSM   0/341
R20_SF   0/108
R20_SPRAK.ENGLISH   0/1
R20_SQUISH   107
R20_TEST   2
R20_WORST_OF_FIDONET   20
RAR   0/9
RA_MULTI   106
RA_UTIL   0/162
REGCON.EUR   0/2066
REGCON   0/13
SCIENCE   0/1206
SF   0/239
SHAREWARE_SUPPORT   4054/5146
SHAREWRE   0/14
SIMPSONS   0/169
STATS_OLD1   0/2539.065
STATS_OLD2   0/2530
STATS_OLD3   0/2395.095
STATS_OLD4   0/1692.25
SURVIVOR   0/495
SYSOPS_CORNER   0/3
SYSOP   0/84
TAGLINES   0/112
TEAMOS2   0/4530
TECH   0/2617
TEST.444   0/105
TRAPDOOR   0/19
TREK   0/755
TUB   0/290
UFO   0/40
UNIX   0/1316
USA_EURLINK   0/102
USR_MODEMS   0/1
VATICAN   0/2740
VIETNAM_VETS   0/14
VIRUS   0/378
VIRUS_INFO   0/201
VISUAL_BASIC   0/473
WHITEHOUSE   0/5187
WIN2000   0/101
WIN32   0/30
WIN95   1613/4291
WIN95_OLD1   54187/70272
WINDOWS   1319/1517
WWB_SYSOP   0/419
WWB_TECH   0/810
ZCC-PUBLIC   0/1
ZEC   4

 
4DOS   0/134
ABORTION   0/7
ALASKA_CHAT   0/506
ALLFIX_FILE   0/1313
ALLFIX_FILE_OLD1   0/7997
ALT_DOS   0/152
AMATEUR_RADIO   0/1039
AMIGASALE   0/14
AMIGA   0/331
AMIGA_INT   0/1
AMIGA_PROG   0/20
AMIGA_SYSOP   0/26
ANIME   0/15
ARGUS   0/924
ASCII_ART   0/340
ASIAN_LINK   0/651
ASTRONOMY   0/417
AUDIO   0/92
AUTOMOBILE_RACING   0/105
BABYLON5   5543/17862
BAG   135
BATPOWER   0/361
BBBS.ENGLISH   0/382
BBSLAW   0/109
BBS_ADS   0/5290
BBS_INTERNET   0/507
BIBLE   0/3563
BINKD   0/1119
BINKLEY   0/215
BLUEWAVE   0/2173
CABLE_MODEMS   0/25
CBM   0/46
CDRECORD   0/66
CDROM   0/20
CLASSIC_COMPUTER   0/378
COMICS   0/15
CONSPRCY   0/899
COOKING   40405
COOKING_OLD1   0/24719
COOKING_OLD2   0/40862
COOKING_OLD3   0/37489
COOKING_OLD4   0/35496
COOKING_OLD5   9370
C_ECHO   0/189
C_PLUSPLUS   0/31
DIRTY_DOZEN   0/201
DOORGAMES   0/2221
DOS_INTERNET   0/196
duplikat   6102
ECHOLIST   0/18295
EC_SUPPORT   0/318
ELECTRONICS   0/359
ELEKTRONIK.GER   1534
ENET.LINGUISTIC   0/13
ENET.POLITICS   0/4
ENET.SOFT   0/11701
ENET.SYSOP   34219
ENET.TALKS   0/32
ENGLISH_TUTOR   0/2000
EVOLUTION   0/1335
FDECHO   0/217
FDN_ANNOUNCE   0/7068
FIDONEWS   24798
FIDONEWS_OLD1   0/49742
FIDONEWS_OLD2   0/35949
FIDONEWS_OLD3   0/30874
FIDONEWS_OLD4   0/37224
FIDO_SYSOP   12913
FIDO_UTIL   0/180
FILEFIND   0/209
FILEGATE   0/212
Möte HAM, 16493 texter
 lista första sista föregående nästa
Text 3727, 880 rader
Skriven 2010-06-10 23:30:24 av Amsat List (1:323/120.0)
Ärende: [keps]  orb10161.amsa
=============================
[keps]  orb10161.amsa

Return-Path: <keps-bounces@amsat.org>
X-Rcpt: craig.healy@chowda.com
X-UIDL: 1276226080.14118

SB KEPS @ AMSAT  $ORB10161.O
Orbital Elements  10161.OSCAR

HR AMSAT ORBITAL ELEMENTS FOR OSCAR SATELLITES
FROM WA5QGD FORT WORTH,TX June 10, 2010
Send Subscribe/unsubscribe to KEPS at http://www.amsat.org/mailman/listinfo/kep
BID: ORB10161.O
TO ALL RADIO AMATEURS BT

Satellite: AO-07
Catalog number: 07530
Epoch time:      10160.62105539
Element set:    0799
Inclination:      101.3997 deg
RA of node:       176.7804 deg
Eccentricity:    0.0011693
Arg of perigee:   290.8065 deg
Mean anomaly:     069.1750 deg
Mean motion:   12.53578524 rev/day
Decay rate:       -2.7e-07 rev/day^2
Epoch rev:           62750
Checksum:              310

Satellite: FO-29
Catalog number: 24278
Epoch time:      10161.59715908
Element set:     326
Inclination:      098.5140 deg
RA of node:       351.6408 deg
Eccentricity:    0.0351330
Arg of perigee:   140.8521 deg
Mean anomaly:     221.8608 deg
Mean motion:   13.52950393 rev/day
Decay rate:        1.0e-08 rev/day^2
Epoch rev:           68221
Checksum:              287

Satellite: SO-33
Catalog number: 25509
Epoch time:      10160.43064524
Element set:    0730
Inclination:      031.4336 deg
RA of node:       192.3872 deg
Eccentricity:    0.0354393
Arg of perigee:   222.0790 deg
Mean anomaly:     135.2103 deg
Mean motion:   14.28309366 rev/day
Decay rate:       -2.0e-07 rev/day^2
Epoch rev:           60694
Checksum:              270

Satellite: RS-22
Catalog number: 27939
Epoch time:      10161.62837913
Element set:     260
Inclination:      097.8944 deg
RA of node:       027.3938 deg
Eccentricity:    0.0014779
Arg of perigee:   081.2189 deg
Mean anomaly:     279.0680 deg
Mean motion:   14.63424968 rev/day
Decay rate:       1.68e-06 rev/day^2
Epoch rev:           35799
Checksum:              357

Satellite: VO-52
Catalog number: 28650
Epoch time:      10160.70510943
Element set:    0524
Inclination:      097.6929 deg
RA of node:       214.4314 deg
Eccentricity:    0.0025990
Arg of perigee:   302.7729 deg
Mean anomaly:     057.1002 deg
Mean motion:   14.81755492 rev/day
Decay rate:       -5.0e-08 rev/day^2
Epoch rev:           27558
Checksum:              298

Satellite: SO-67
Catalog number: 35870
Epoch time:      10161.74273618
Element set:     808
Inclination:      097.3322 deg
RA of node:       211.0488 deg
Eccentricity:    0.0004567
Arg of perigee:   108.0340 deg
Mean anomaly:     031.4137 deg
Mean motion:   15.20914603 rev/day
Decay rate:       4.46e-06 rev/day^2
Epoch rev:            4047
Checksum:              276

Satellite: HO-68
Catalog number: 36122
Epoch time:      10161.71145695
Element set:     384
Inclination:      100.4684 deg
RA of node:       222.2063 deg
Eccentricity:    0.0007511
Arg of perigee:   354.6440 deg
Mean anomaly:     005.4587 deg
Mean motion:   13.16281003 rev/day
Decay rate:       -4.5e-07 rev/day^2
Epoch rev:            2336
Checksum:              259

/EX
SB KEPS @ AMSAT  $ORB10161.D
Orbital Elements  10161.MICROS

HR AMSAT ORBITAL ELEMENTS FOR THE MICROSATS
FROM WA5QGD FORT WORTH,TX June 10, 2010
Send Subscribe/unsubscribe to KEPS at http://www.amsat.org/mailman/listinfo/kep
BID: ORB10161.D
TO ALL RADIO AMATEURS BT

Satellite: UO-11
Catalog number: 14781
Epoch time:      10160.65202095
Element set:    0263
Inclination:      098.0562 deg
RA of node:       212.3704 deg
Eccentricity:    0.0007967
Arg of perigee:   262.3129 deg
Mean anomaly:     097.7204 deg
Mean motion:   14.79808686 rev/day
Decay rate:       2.90e-06 rev/day^2
Epoch rev:           41069
Checksum:              301

Satellite: AO-16
Catalog number: 20439
Epoch time:      10161.69016221
Element set:     916
Inclination:      098.3314 deg
RA of node:       119.8516 deg
Eccentricity:    0.0010805
Arg of perigee:   180.4949 deg
Mean anomaly:     179.6221 deg
Mean motion:   14.31863622 rev/day
Decay rate:        1.5e-07 rev/day^2
Epoch rev:            6445
Checksum:              285

Satellite: LO-19
Catalog number: 20442
Epoch time:      10161.47932357
Element set:     827
Inclination:      098.2912 deg
RA of node:       125.4789 deg
Eccentricity:    0.0011950
Arg of perigee:   176.5292 deg
Mean anomaly:     183.5968 deg
Mean motion:   14.32095166 rev/day
Decay rate:        6.2e-07 rev/day^2
Epoch rev:            6459
Checksum:              323

Satellite: AO-27
Catalog number: 22825
Epoch time:      10160.87266922
Element set:    0551
Inclination:      098.4843 deg
RA of node:       109.0118 deg
Eccentricity:    0.0007533
Arg of perigee:   293.6738 deg
Mean anomaly:     066.3657 deg
Mean motion:   14.29299365 rev/day
Decay rate:        1.1e-07 rev/day^2
Epoch rev:           87100
Checksum:              313

Satellite: IO-26
Catalog number: 22826
Epoch time:      10160.86944686
Element set:     286
Inclination:      098.4783 deg
RA of node:       109.6128 deg
Eccentricity:    0.0008083
Arg of perigee:   289.3558 deg
Mean anomaly:     070.6750 deg
Mean motion:   14.29555428 rev/day
Decay rate:        1.3e-07 rev/day^2
Epoch rev:           87111
Checksum:              331

Satellite: GO-32
Catalog number: 25397
Epoch time:      10161.56251966
Element set:     206
Inclination:      098.3127 deg
RA of node:       169.3776 deg
Eccentricity:    0.0000430
Arg of perigee:   341.5453 deg
Mean anomaly:     018.5707 deg
Mean motion:   14.23179517 rev/day
Decay rate:        8.9e-07 rev/day^2
Epoch rev:           61910
Checksum:              302

